Regional Weather Roundup
Issued by NWS Charleston, SC

Home | Current Version | Previous Version | Text Only | Print | Product List | Glossary On
Versions: 1 2 3 4 5 6 7 8 9 10 11 12 13 14 15 16 17 18 19 20 21 22 23 24 25 26 27 28 29 30 31 32 33 34 35 36 37 38 39 40 41 42 43 44 45 46 47 48 49 50
000
ASUS42 KCHS 280613
RWRCHS

REGIONAL WEATHER ROUNDUP
NATIONAL WEATHER SERVICE CHARLESTON SC
200 AM EDT SAT MAY 28 2016

NOTE: "FAIR" INDICATES FEW OR NO CLOUDS BELOW 12,000 FEET WITH NO
SIGNIFICANT WEATHER AND/OR OBSTRUCTIONS TO VISIBILITY.

NOT ALL STATIONS ARE QUALITY CONTROLLED. USE DATA WITH CAUTION...
ESPECIALLY DEWPOINT OBSERVATIONS.

SCZ027-030-031-034>040-042>050-280700-
...SOUTHEAST SOUTH CAROLINA...

CITY           SKY/WX    TMP DP  RH WIND       PRES   REMARKS
N CHARLESTON   MOCLDY    73  65  75 NE8       30.09F
6HR MIN TEMP:  73; 6HR MAX TEMP:  78;

WATERFRONT PRK   N/A     76  70  81 NE7       30.07S
MOUNT PLEASANT MOCLDY    72  68  88 CALM      30.09F
JOHNS ISLAND   MOCLDY    75  70  83 NE9       30.08F
PINOPOLIS        N/A     73  66  78 E5        30.03S
MONCKS CORNER  CLOUDY    66  61  82 NE3       30.10F
SUMMERVILLE    CLOUDY    68  64  88 CALM      30.11S
BEAUFORT MCAS  PTCLDY    69  66  90 N6        30.08F
6HR MIN TEMP:  68; 6HR MAX TEMP:  77;

BEAUFORT ARPT  FAIR      72  66  83 N6        30.08S
HILTON HEAD IS PTCLDY    73  68  83 N3        30.08S
WALTERBORO     CLOUDY    66  66 100 CALM      30.11S
ALLENDALE      FAIR      64  63  94 CALM      30.09F

...SOUTHERN MIDLANDS AND PEE DEE...

CITY           SKY/WX    TMP DP  RH WIND       PRES   REMARKS
GEORGETOWN     MOCLDY    72  68  88 E6        30.11F
KINGSTREE      FAIR      61  59  94 CALM      30.12S
ORANGEBURG     CLEAR     64  60  87 NE3       30.12R
6HR MIN TEMP:  64; 6HR MAX TEMP:  82;

BARNWELL       FAIR      64  64 100 CALM      30.11F
AIKEN          FAIR      61  57  88 CALM      30.14F
MANNING        FAIR      61  59  94 CALM      30.12S
COLUMBIA       CLEAR     65  57  75 CALM      30.11F
6HR MIN TEMP:  63; 6HR MAX TEMP:  83;

SUMTER         CLEAR     63  57  81 NE2       30.10S
6HR MIN TEMP:  63; 6HR MAX TEMP:  80;

FLORENCE       CLEAR     65  59  81 CALM      30.13S
6HR MIN TEMP:  64; 6HR MAX TEMP:  80;

MYRTLE BEACH   PTCLDY    75  63  64 E7        30.13S
N MYRTLE BEACH CLEAR     70  66  87 NE5       30.11S
6HR MIN TEMP:  70; 6HR MAX TEMP:  76;


$$

GAZ063-065-086>088-099>101-113>116-118-119-134>141-150-280700-
...SOUTHEAST GEORGIA...

CITY           SKY/WX    TMP DP  RH WIND       PRES   REMARKS
SAVANNAH ARPT  PTCLDY    67  64  90 NE5       30.07F
6HR MIN TEMP:  67; 6HR MAX TEMP:  77;

HUNTER AAF     CLEAR     71  69  94 CALM      30.04F
6HR MIN TEMP:  71; 6HR MAX TEMP:  76;

FORT STEWART   PTCLDY    66  63  91 CALM      30.05F FOG
6HR MIN TEMP:  66; 6HR MAX TEMP:  77;

STATESBORO     CLEAR     64  64  98 CALM      30.09F
SYLVANIA       PTCLDY    67  64  91 CALM      30.10F
CLAXTON        FAIR      63  63  99 CALM      30.08F

...CSRA...CENTRAL AND FAR SOUTHEAST GEORGIA...

CITY           SKY/WX    TMP DP  RH WIND       PRES   REMARKS
THOMSON        CLEAR     65  63  91 CALM      30.15S
AUGUSTA-BUSH   CLEAR     62  61  96 CALM      30.10S
6HR MIN TEMP:  61; 6HR MAX TEMP:  80;

AUGUSTA-DANIEL PTCLDY    70  61  73 CALM      30.11F
SWAINSBORO     FAIR      64  61  88 E3        30.09F
VIDALIA        CLEAR     68  64  88 E5        30.08F
EASTMAN        FAIR      64  64 100 CALM      30.10F
HAZLEHURST     FAIR      71  67  87 CALM      30.06F
ALMA           CLEAR     65  65 100 CALM      30.06F
6HR MIN TEMP:  65; 6HR MAX TEMP:  79;

WAYCROSS       CLEAR     68  67  97 E5        30.05F
JESUP          FAIR      63  61  94 CALM      30.07F
BAXLEY         FAIR      70  68  94 CALM      30.06F
BRUNSWICK      PTCLDY    72  70  94 CALM      30.06F
SAINT SIMONS   PTCLDY    75  70  84 NE7       30.05F
6HR MIN TEMP:  75; 6HR MAX TEMP:  77;


$$

SCZ027-028-034-036>038-045-046-048>050-GAZ119-141-280700-
...LAKE AND SUPPLEMENTAL COASTAL OBSERVATIONS...

STATION/POSITION TIME  TEMP    WIND        PRES    WAVE   SWELL
                       AIR SEA DIR/SP/G            HT/PER HT/PER/DIR
                 (UTC) (F)     (DEG/KT/KT) (MB)    (FT/S) (FT/S/D)
WINYAH BAY       NOT AVBL
LAKE MURRAY      0500   73     120/  3/  4 1019.6R
ACE BASIN NERRS  NOT AVBL
FORT PULASKI     0500   76 77   60/ 10/ 12 1019.0F
SAPELO ISLAND    0500   74      60/  5     1018.0S

$$

ANZ835-935-AMZ111-154-330-350-352-354-370-450-454-472-280700-
...C-MAN AND BUOY OBSERVATIONS...

STATION/POSITION TIME  TEMP    WIND        PRES    WAVE   SWELL
                       AIR SEA DIR/SP/G            HT/PER HT/PER/DIR
                 (UTC) (F)     (DEG/KT/KT) (MB)    (FT/S) (FT/S/D)
BUOY 41004       0550   76 76   70/ 10/ 14 1017.8F   4/ 7   3/ 7
BUOY 41008       0550   76 76   60/ 10/ 12 1017.4F   3/ 8   3/120/ 8
FOLLY BEACH CMAN 0600   75      60/ 13/ 14 1018.7F
CAPERS NEARSHORE 0508   76 76   70/ 14/ 17 1018.7R
FRIPP NEARSHORE  0508   76 76   80/ 14/ 17 1017.7F


STATION/POSITION TIME  TEMP    WIND        PRES    WAVE   SWELL
                       AIR SEA DIR/SP/G            HT/PER HT/PER/DIR
                 (UTC) (F)     (DEG/KT/KT) (MB)    (FT/S) (FT/S/D)
5E ST. MARYS GA  0601      77                N/A     3/ 7
FRYING PAN BUOY  0500   77 76   90/  8/ 12 1019.0F
BUOY 41025       0550   76 78  120/ 12/ 14 1020.4F   4/ 6   2/120/ 6
CAPE LOOKOUT NC  0600   74     100/  7/  7 1020.0F
BUOY 41002       0550   76 77   90/ 17/ 19 1017.1F   6/ 8   5/110/ 8
BUOY 41010       0520   77 78   10/ 12/ 14 1014.5F
ST AUGUSTINE FL  0600   77 79   70/  9/ 10 1017.5F


$$




USA.gov is the U.S. government's official web portal to all federal, state and local government web resources and services.